Latest Weather Observations for Newcastle Nobbys

IDN60901

Issued at 9:05 pm EST Thursday 24 April 2014 (issued every 10 minutes, with the page automatically refreshed every 10 minutes)

About weather observations | Map of Sydney area stations | Latest observations for Sydney area | Other Formats
Station Details ID: 061055 Name: NEWCASTLE NOBBYS SIGNAL STATION AWS Lat: -32.92 Lon: 151.80 Height: 33.0 m
Data from the previous 72 hours. | See also: Recent months at Newcastle Nobbys
Date/Time
EST
Tmp

°C
App
Tmp
°C
Dew
Point
°C
Rel
Hum
%
Delta-T

°C
Wind Press
QNH
hPa
Press
MSL
hPa
Rain
since
9 am
mm
Dir
 
Spd
km/h
Gust
km/h
Spd
kts
Gust
kts
24/09:00pm 21.3 23.1 17.5 79 2.3 N 4 7 2 4 - - 0.0
24/08:30pm 22.0 23.1 17.2 74 3.0 N 7 9 4 5 - - 0.0
24/08:00pm 22.1 22.8 17.0 73 3.1 NNE 9 11 5 6 - - 0.0
24/07:30pm 22.5 23.4 17.6 74 3.0 NE 9 13 5 7 - - 0.0
24/07:00pm 23.5 23.8 14.5 57 5.3 WNW 6 7 3 4 - - 0.0
24/06:30pm 25.2 24.4 11.7 43 7.7 WNW 7 9 4 5 - - 0.0
24/06:00pm 25.6 24.3 11.4 41 8.1 NW 9 11 5 6 - - 0.0
24/05:30pm 25.7 23.8 11.8 42 7.9 NW 13 17 7 9 - - 0.0
24/05:00pm 26.8 24.3 10.9 37 9.0 NW 15 17 8 9 - - 0.0
24/04:30pm 27.5 24.6 11.1 36 9.3 WNW 17 24 9 13 - - 0.0
24/04:00pm 28.0 24.8 11.1 35 9.6 NW 19 26 10 14 - - 0.0
24/03:30pm 28.6 24.9 10.3 32 10.3 NW 20 28 11 15 - - 0.0
24/03:00pm 29.0 25.6 11.1 33 10.3 NW 20 28 11 15 - - 0.0
24/02:30pm 29.1 24.8 10.7 32 10.5 WNW 24 33 13 18 - - 0.0
24/02:00pm 28.9 24.1 11.5 34 10.0 WNW 28 41 15 22 - - 0.0
24/01:30pm 29.0 24.3 12.0 35 9.9 WNW 28 37 15 20 - - 0.0
24/01:00pm 28.4 23.4 11.0 34 9.9 WNW 28 39 15 21 - - 0.0
24/12:30pm 28.3 23.4 12.6 38 9.2 NW 30 46 16 25 - - 0.0
24/12:00pm 27.4 20.9 11.8 38 9.0 NW 37 48 20 26 - - 0.0
24/11:30am 26.7 20.8 12.4 41 8.3 NW 35 46 19 25 - - 0.0
24/11:00am 25.5 21.3 13.4 47 7.1 NW 28 39 15 21 - - 0.0
24/10:30am 23.7 18.8 12.4 49 6.5 NW 30 37 16 20 - - 0.0
24/10:00am 22.3 18.5 12.3 53 5.7 NW 24 35 13 19 - - 0.0
24/09:30am 20.9 16.7 12.3 58 4.8 NW 26 32 14 17 - - 0.0
24/09:00am 19.6 15.3 12.1 62 4.2 NNW 26 33 14 18 - - 0.0
24/08:30am 19.3 14.3 12.1 63 4.0 NW 30 39 16 21 - - 0.0
24/08:00am 17.9 14.1 12.4 70 3.1 NW 24 30 13 16 - - 0.0
24/07:30am 16.9 12.6 12.2 74 2.6 NNW 26 32 14 17 - - 0.0
24/07:00am 16.0 11.4 12.4 79 2.0 NNW 28 35 15 19 - - 0.0
24/06:30am 15.4 12.5 12.2 81 1.7 NNW 19 24 10 13 - - 0.0
24/06:00am 15.5 12.9 12.1 80 1.9 NW 17 20 9 11 - - 0.0
24/05:30am 15.2 12.2 12.5 84 1.5 NW 20 24 11 13 - - 0.0
24/05:00am 15.4 12.8 13.1 86 1.3 NW 19 22 10 12 - - 0.0
24/04:30am 15.1 12.8 13.0 87 1.2 NW 17 19 9 10 - - 0.0
24/04:00am 15.2 12.5 12.9 86 1.3 NW 19 22 10 12 - - 0.0
24/03:30am 15.5 14.5 13.3 87 1.2 NNW 11 13 6 7 - - 0.0
24/03:00am 15.7 14.6 13.0 84 1.5 NW 11 15 6 8 - - 0.0
24/02:30am 16.4 14.8 13.9 85 1.4 NNW 15 19 8 10 - - 0.0
24/02:00am 16.6 15.4 14.1 85 1.4 NW 13 15 7 8 - - 0.0
24/01:30am 16.4 15.1 13.7 84 1.5 NW 13 15 7 8 - - 0.0
24/01:00am 17.2 17.0 14.8 86 1.4 NW 9 11 5 6 - - 0.0
24/12:30am 17.3 17.4 14.4 83 1.7 NNW 7 9 4 5 - - 0.0
24/12:00am 17.7 17.9 14.8 83 1.7 NNW 7 11 4 6 - - 0.0
 
Date/Time
EST
Tmp

°C
App
Tmp
°C
Dew
Point
°C
Rel
Hum
%
Delta-T

°C
Wind Press
QNH
hPa
Press
MSL
hPa
Rain
since
9 am
mm
Dir
 
Spd
km/h
Gust
km/h
Spd
kts
Gust
kts
23/11:30pm 18.2 18.7 15.1 82 1.8 NW 6 7 3 4 - - 0.0
23/11:00pm 18.7 19.5 14.8 78 2.3 NNW 4 6 2 3 - - 0.0
23/10:30pm 18.8 19.2 14.7 77 2.4 WNW 6 7 3 4 - - 0.0
23/10:00pm 18.9 18.9 13.7 72 3.0 WNW 6 7 3 4 - - 0.0
23/09:30pm 20.1 19.8 12.8 63 4.1 WNW 6 7 3 4 - - 0.0
23/09:00pm 21.3 21.6 14.5 65 4.0 WNW 6 7 3 4 - - 0.0
23/08:30pm 20.4 20.6 14.3 68 3.5 WNW 6 6 3 3 - - 0.0
23/08:00pm 20.9 21.5 15.2 70 3.4 N 6 7 3 4 - - 0.0
23/07:30pm 20.6 21.0 14.7 69 3.5 N 6 7 3 4 - - 0.0
23/07:00pm 21.2 21.7 15.5 70 3.4 NE 7 13 4 7 - - 0.0
23/06:30pm 21.6 20.6 13.5 60 4.7 E 11 13 6 7 - - 0.0
23/06:00pm 21.5 20.2 12.6 57 5.1 E 11 13 6 7 - - 0.0
23/05:30pm 21.5 20.2 12.6 57 5.1 E 11 13 6 7 - - 0.0
23/05:00pm 22.2 20.8 12.2 53 5.7 SE 11 13 6 7 - - 0.0
23/04:30pm 22.7 21.0 12.3 52 5.9 SE 13 13 7 7 - - 0.0
23/04:00pm 23.1 21.1 11.5 48 6.5 SE 13 15 7 8 - - 0.0
23/03:30pm 22.8 20.6 10.9 47 6.6 SE 13 15 7 8 - - 0.0
23/03:00pm 22.3 20.0 11.7 51 5.9 SSE 15 17 8 9 - - 0.0
23/02:30pm 22.3 19.9 11.4 50 6.1 S 15 19 8 10 - - 0.0
23/02:00pm 22.5 19.9 10.6 47 6.6 SSE 15 17 8 9 - - 0.0
23/01:30pm 22.1 19.4 11.8 52 5.8 SSE 17 19 9 10 - - 0.0
23/01:00pm 22.1 19.4 10.3 47 6.4 S 15 17 8 9 - - 0.0
23/12:30pm 21.9 20.2 12.5 55 5.3 S 13 15 7 8 - - 0.0
23/12:00pm 21.9 20.6 12.5 55 5.3 S 11 13 6 7 - - 0.0
23/11:30am 22.7 20.8 12.9 54 5.6 S 15 20 8 11 - - 0.0
23/11:00am 25.1 23.2 9.0 36 8.7 W 9 11 5 6 - - 0.0
23/10:30am 23.9 21.8 9.9 41 7.7 WNW 11 17 6 9 - - 0.0
23/10:00am 22.7 20.8 10.5 46 6.7 WNW 11 17 6 9 - - 0.0
23/09:30am 20.9 18.5 10.1 50 5.8 NW 13 15 7 8 - - 0.0
23/09:00am 19.8 17.4 10.2 54 5.2 NW 13 17 7 9 - - 0.0
23/08:30am 18.9 16.3 9.4 54 5.0 NW 13 15 7 8 - - 0.0
23/08:00am 17.4 14.2 10.1 62 3.9 WNW 17 22 9 12 - - 0.0
23/07:30am 15.8 13.7 9.7 67 3.2 NW 11 15 6 8 - - 0.0
23/07:00am 15.3 14.1 10.3 72 2.6 NW 7 9 4 5 - - 0.0
23/06:30am 15.0 13.8 10.4 74 2.4 NW 7 13 4 7 - - 0.0
23/06:00am 15.2 13.7 10.6 74 2.4 WNW 9 13 5 7 - - 0.0
23/05:30am 15.4 14.4 11.0 75 2.3 WNW 7 9 4 5 - - 0.0
23/05:00am 16.0 15.3 11.4 74 2.5 NW 6 9 3 5 - - 0.0
23/04:30am 16.2 14.9 11.4 73 2.6 NNW 9 11 5 6 - - 0.0
23/04:00am 16.8 16.3 9.5 62 3.8 NW 2 2 1 1 - - 0.0
23/03:30am 17.0 15.5 10.4 65 3.5 NW 9 13 5 7 - - 0.0
23/03:00am 16.5 14.0 11.2 71 2.9 NW 15 17 8 9 - - 0.0
23/02:30am 16.2 13.8 11.4 73 2.6 WNW 15 17 8 9 - - 0.0
23/02:00am 16.7 14.3 11.4 71 2.9 WNW 15 19 8 10 - - 0.0
23/01:30am 16.4 14.6 12.2 76 2.3 WNW 13 15 7 8 - - 0.0
23/01:00am 16.5 15.4 12.1 75 2.4 NW 9 13 5 7 - - 0.0
23/12:30am 16.8 15.9 12.5 76 2.4 NNW 9 13 5 7 - - 0.0
23/12:00am 17.3 16.5 12.8 75 2.5 NNW 9 11 5 6 - - 0.0
 
Date/Time
EST
Tmp

°C
App
Tmp
°C
Dew
Point
°C
Rel
Hum
%
Delta-T

°C
Wind Press
QNH
hPa
Press
MSL
hPa
Rain
since
9 am
mm
Dir
 
Spd
km/h
Gust
km/h
Spd
kts
Gust
kts
22/11:30pm 18.0 17.5 12.2 69 3.2 NNW 6 7 3 4 - - 0.0
22/11:00pm 18.4 18.0 11.2 63 3.9 N 4 6 2 3 - - 0.0
22/10:30pm 18.8 17.8 12.3 66 3.6 WNW 9 9 5 5 - - 0.0
22/10:00pm 20.0 19.0 11.0 56 4.9 W 7 9 4 5 - - 0.0
22/09:30pm 20.5 19.6 12.5 60 4.5 NW 9 11 5 6 - - 0.0
22/09:00pm 20.4 19.7 12.1 59 4.6 NW 7 9 4 5 - - 0.0
22/08:30pm 20.5 20.0 12.7 61 4.4 N 7 9 4 5 - - 0.0
22/08:00pm 21.0 20.6 12.4 58 4.9 N 6 6 3 3 - - 0.0
22/07:30pm 20.6 20.5 12.1 58 4.8 NNE 4 6 2 3 - - 0.0
22/07:00pm 21.3 21.0 11.3 53 5.5 N 4 9 2 5 - - 0.0
22/06:30pm 22.2 21.0 11.6 51 5.9 NNW 9 11 5 6 - - 0.0
22/06:00pm 22.9 20.7 9.3 42 7.3 NW 11 13 6 7 - - 0.0
22/05:30pm 23.4 20.7 9.0 40 7.7 NNW 13 17 7 9 - - 0.0
22/05:00pm 23.9 21.0 8.3 37 8.3 NW 13 17 7 9 - - 0.0
22/04:30pm 24.6 20.8 7.7 34 8.9 NW 17 24 9 13 - - 0.0
22/04:00pm 25.2 19.3 7.3 32 9.4 NW 28 41 15 22 - - 0.0
22/03:30pm 25.5 18.5 6.7 30 9.8 NW 33 48 18 26 - - 0.0
22/03:00pm 25.9 19.4 8.0 32 9.6 WNW 32 41 17 22 - - 0.0
22/02:39pm 24.6 18.2 6.8 32 9.3 NW 30 50 16 27 - - 0.0
22/02:30pm 24.4 18.7 8.4 36 8.6 NW 28 37 15 20 - - 0.0
22/02:00pm 24.3 17.2 7.9 35 8.7 NW 35 44 19 24 - - 0.0
22/01:30pm 23.9 18.2 8.3 37 8.3 NW 28 37 15 20 - - 0.0
22/01:00pm 23.7 18.6 9.3 40 7.8 NNW 26 35 14 19 - - 0.0
22/12:30pm 23.7 19.5 9.7 41 7.6 NNW 22 32 12 17 - - 0.0
22/12:00pm 23.2 20.3 10.9 46 6.8 NNW 17 24 9 13 - - 0.0
22/11:30am 21.8 19.1 11.8 53 5.6 NNW 17 24 9 13 - - 0.0
22/11:00am 20.8 18.0 11.4 55 5.2 NNW 17 20 9 11 - - 0.0
22/10:30am 20.2 15.7 11.4 57 4.9 NW 26 32 14 17 - - 0.0
22/10:00am 19.3 16.1 11.8 62 4.1 NW 20 26 11 14 - - 0.0
22/09:30am 17.9 14.6 11.5 66 3.5 NW 20 26 11 14 - - 0.0
22/09:00am 16.5 13.1 11.2 71 2.9 NW 20 26 11 14 - - 0.0
22/08:30am 15.5 12.2 11.5 77 2.2 NNW 20 26 11 14 - - 0.0
22/08:00am 14.2 10.2 10.4 78 2.0 NW 22 28 12 15 - - 0.0
22/07:30am 13.5 10.0 10.9 84 1.4 NW 20 26 11 14 - - 0.0
22/07:00am 12.4 9.7 10.5 88 1.0 NW 15 19 8 10 - - 0.0
22/06:30am 12.2 9.6 10.6 90 0.8 NW 15 17 8 9 - - 0.0
22/06:00am 12.9 10.8 11.0 88 1.0 NNW 13 17 7 9 - - 0.0
22/05:30am 13.0 9.8 11.2 89 0.9 NW 19 20 10 11 - - 0.0
22/05:00am 12.6 9.6 10.8 89 0.9 NW 17 22 9 12 - - 0.0
22/04:30am 12.9 10.5 11.3 90 0.8 NW 15 19 8 10 - - 0.0
22/04:00am 13.6 12.5 12.0 90 0.9 NW 9 13 5 7 - - 0.0
22/03:30am 14.2 13.2 12.2 88 1.1 NW 9 11 5 6 - - 0.0
22/03:00am 14.9 13.9 12.2 84 1.5 NW 9 11 5 6 - - 0.0
22/02:30am 15.5 14.8 11.9 79 2.0 NNW 7 9 4 5 - - 0.0
22/02:00am 15.8 15.4 12.4 80 1.9 NW 6 6 3 3 - - 0.0
22/01:30am 15.6 15.0 11.8 78 2.1 SW 6 7 3 4 - - 0.0
22/01:00am 15.7 14.9 11.7 77 2.2 SW 7 9 4 5 - - 0.0
22/12:30am 15.8 14.9 11.4 75 2.4 SW 7 9 4 5 - - 0.0
22/12:00am 15.8 15.0 11.6 76 2.3 SW 7 9 4 5 - - 0.0
 
Date/Time
EST
Tmp

°C
App
Tmp
°C
Dew
Point
°C
Rel
Hum
%
Delta-T

°C
Wind Press
QNH
hPa
Press
MSL
hPa
Rain
since
9 am
mm
Dir
 
Spd
km/h
Gust
km/h
Spd
kts
Gust
kts
21/11:30pm 15.9 15.1 11.7 76 2.3 SW 7 9 4 5 - - 0.0
21/11:00pm 16.0 15.4 12.2 78 2.1 SW 7 9 4 5 - - 0.0
21/10:30pm 16.3 15.8 12.8 80 1.9 SW 7 9 4 5 - - 0.0
21/10:00pm 17.0 16.7 12.7 76 2.4 SW 6 7 3 4 - - 0.0
21/09:30pm 17.2 16.8 12.3 73 2.7 SW 6 7 3 4 - - 0.0

Latest Capital City Observations: Canberra | Sydney | Melbourne | Brisbane | Adelaide | Perth | Hobart | Darwin

Other Formats:

Comma delimited format used in spreadsheet applications
http://www.bom.gov.au/fwo/IDN60901/IDN60901.94774.axf

JavaScript Object Notation format (JSON) in row-major order
http://www.bom.gov.au/fwo/IDN60901/IDN60901.94774.json